| time (UTC) | temp C | wind direction | speed KPH | gust KPH | rain 1hr cm | rain 24hr cm | rain mn cm | humidity % | barometer mb |
| 20260506211527 | 18 | 95 | 3.2 | 4.8 | 0.00 | 0.00 | 0.00 | 82 | 1006.1 |
| 20260506211024 | 18 | 136 | 4.8 | 9.7 | 0.00 | 0.00 | 0.00 | 82 | 1006.2 |
| 20260506210521 | 18 | 181 | 6.4 | 14.5 | 0.00 | 0.00 | 0.00 | 82 | 1006.2 |
| 20260506210018 | 18 | 230 | 4.8 | 6.4 | 0.00 | 0.00 | 0.00 | 82 | 1006.0 |
| 20260506205514 | 18 | 157 | 4.8 | 6.4 | 0.00 | 0.00 | 0.00 | 82 | 1005.9 |
| 20260506205009 | 18 | 186 | 1.6 | 3.2 | 0.00 | 0.00 | 0.00 | 82 | 1005.9 |
| 20260506204508 | 18 | 205 | 4.8 | 9.7 | 0.00 | 0.05 | 0.05 | 82 | 1005.8 |
| 20260506204004 | 18 | 180 | 4.8 | 6.4 | 0.00 | 0.05 | 0.05 | 83 | 1005.7 |
| 20260506203503 | 18 | 237 | 0.0 | 1.6 | 0.00 | 0.05 | 0.05 | 83 | 1006.0 |
| 20260506202959 | 18 | 167 | 6.4 | 11.3 | 0.00 | 0.05 | 0.05 | 83 | 1005.9 |
| 20260506202456 | 18 | 97 | 11.3 | 12.9 | 0.00 | 0.05 | 0.05 | 83 | 1006.2 |
| 20260506201952 | 18 | 192 | 6.4 | 6.4 | 0.00 | 0.05 | 0.05 | 83 | 1006.0 |
| 20260506201450 | 18 | 210 | 8.0 | 14.5 | 0.00 | 0.05 | 0.05 | 83 | 1006.2 |
| 20260506200947 | 18 | 178 | 9.7 | 14.5 | 0.00 | 0.05 | 0.05 | 83 | 1006.3 |
| 20260506200443 | 18 | 223 | 8.0 | 12.9 | 0.00 | 0.05 | 0.05 | 83 | 1006.6 |
| 20260506195939 | 18 | 177 | 9.7 | 12.9 | 0.00 | 0.05 | 0.05 | 83 | 1006.4 |
| 20260506195436 | 18 | 190 | 4.8 | 9.7 | 0.00 | 0.05 | 0.05 | 84 | 1006.2 |
| 20260506194933 | 17 | 223 | 1.6 | 4.8 | 0.00 | 0.05 | 0.05 | 86 | 1006.3 |
| 20260506194430 | 17 | 165 | 6.4 | 6.4 | 0.00 | 0.05 | 0.05 | 85 | 1006.3 |
| 20260506193927 | 17 | 279 | 0.0 | 0.0 | 0.00 | 0.05 | 0.05 | 86 | 1006.6 |
| 20260506193424 | 17 | 190 | 6.4 | 11.3 | 0.00 | 0.05 | 0.05 | 86 | 1006.7 |
| 20260506192920 | 17 | 227 | 8.0 | 11.3 | 0.00 | 0.05 | 0.05 | 85 | 1007.0 |
| 20260506192417 | 17 | 250 | 4.8 | 9.7 | 0.13 | 0.05 | 0.05 | 85 | 1006.6 |
| 20260506191915 | 17 | 168 | 9.7 | 24.1 | 0.13 | 0.05 | 0.05 | 85 | 1006.9 |
| 20260506191411 | 17 | 183 | 3.2 | 9.7 | 0.00 | 0.03 | 0.03 | 86 | 1006.4 |
| 20260506190908 | 17 | 208 | 8.0 | 16.1 | 0.00 | 0.03 | 0.03 | 87 | 1006.8 |
| 20260506190404 | 17 | 308 | 1.6 | 1.6 | 0.00 | 0.03 | 0.03 | 87 | 1006.8 |
| 20260506185901 | 16 | 312 | 1.6 | 3.2 | 0.00 | 0.03 | 0.03 | 87 | 1006.8 |
| 20260506185358 | 16 | 299 | 6.4 | 11.3 | 0.00 | 0.03 | 0.03 | 86 | 1007.0 |
| 20260506184855 | 16 | 319 | 3.2 | 4.8 | 0.00 | 0.03 | 0.03 | 86 | 1006.9 |
| 20260506184352 | 16 | 310 | 0.0 | 0.0 | 0.00 | 0.03 | 0.03 | 86 | 1007.1 |
| 20260506183850 | 16 | 30 | 3.2 | 3.2 | 0.00 | 0.03 | 0.03 | 85 | 1006.6 |
| 20260506183344 | 16 | 347 | 3.2 | 4.8 | 0.00 | 0.03 | 0.03 | 84 | 1006.9 |
| 20260506182842 | 16 | 20 | 4.8 | 6.4 | 0.00 | 0.03 | 0.03 | 84 | 1006.7 |
| 20260506182339 | 16 | 23 | 6.4 | 9.7 | 0.00 | 0.03 | 0.03 | 84 | 1007.2 |
| 20260506181837 | 16 | 40 | 6.4 | 9.7 | 0.00 | 0.03 | 0.03 | 83 | 1007.1 |
| 20260506181334 | 16 | 309 | 3.2 | 4.8 | 0.00 | 0.03 | 0.03 | 83 | 1007.5 |
| 20260506180826 | 17 | 35 | 1.6 | 3.2 | 0.00 | 0.03 | 0.03 | 83 | 1007.3 |
| 20260506180321 | 17 | 308 | 1.6 | 1.6 | 0.00 | 0.03 | 0.03 | 83 | 1007.3 |
| 20260506175818 | 17 | 347 | 1.6 | 3.2 | 0.00 | 0.03 | 0.03 | 84 | 1007.2 |
| 20260506175315 | 17 | 341 | 6.4 | 9.7 | 0.00 | 0.03 | 0.03 | 82 | 1007.2 |
| 20260506174812 | 18 | 60 | 6.4 | 9.7 | 0.00 | 0.03 | 0.03 | 80 | 1007.1 |
| 20260506174309 | 19 | 311 | 0.0 | 1.6 | 0.00 | 0.03 | 0.03 | 79 | 1007.3 |
| 20260506173807 | 19 | 315 | 4.8 | 9.7 | 0.00 | 0.03 | 0.03 | 78 | 1007.2 |
| 20260506173303 | 18 | 221 | 4.8 | 4.8 | 0.00 | 0.03 | 0.03 | 78 | 1007.1 |
| 20260506172800 | 18 | 294 | 4.8 | 6.4 | 0.00 | 0.03 | 0.03 | 78 | 1007.2 |
| 20260506172257 | 18 | 323 | 6.4 | 9.7 | 0.00 | 0.03 | 0.03 | 78 | 1007.5 |
| 20260506171755 | 18 | 280 | 1.6 | 1.6 | 0.00 | 0.03 | 0.03 | 79 | 1007.4 |
| 20260506171252 | 18 | 197 | 3.2 | 4.8 | 0.00 | 0.03 | 0.03 | 79 | 1007.9 |
| 20260506170749 | 19 | 284 | 8.0 | 12.9 | 0.00 | 0.03 | 0.03 | 78 | 1007.9 |
| 20260506170245 | 18 | 3 | 8.0 | 12.9 | 0.18 | 0.03 | 0.03 | 78 | 1007.9 |
| 20260506165744 | 18 | 198 | 14.5 | 16.1 | 0.18 | 0.03 | 0.03 | 78 | 1008.3 |
| 20260506165241 | 19 | 295 | 6.4 | 11.3 | 0.00 | 0.00 | 0.00 | 79 | 1008.1 |
| 20260506164738 | 19 | 50 | 6.4 | 11.3 | 0.00 | 0.00 | 0.00 | 77 | 1008.4 |
| 20260506164235 | 19 | 239 | 8.0 | 12.9 | 0.00 | 0.00 | 0.00 | 77 | 1008.3 |
| 20260506163732 | 19 | 189 | 3.2 | 6.4 | 0.00 | 0.00 | 0.00 | 77 | 1008.4 |
| 20260506163226 | 19 | 328 | 4.8 | 6.4 | 0.00 | 0.00 | 0.00 | 76 | 1008.3 |
| 20260506162723 | 19 | 268 | 6.4 | 9.7 | 0.00 | 0.00 | 0.00 | 75 | 1008.2 |
| 20260506162221 | 20 | 169 | 6.4 | 6.4 | 0.00 | 0.00 | 0.00 | 72 | 1008.5 |
| 20260506161718 | 20 | 161 | 3.2 | 4.8 | 0.00 | 0.00 | 0.00 | 68 | 1008.4 |
| 20260506161215 | 21 | 214 | 9.7 | 12.9 | 0.00 | 0.00 | 0.00 | 64 | 1008.6 |
| 20260506160713 | 21 | 125 | 6.4 | 12.9 | 0.00 | 0.00 | 0.00 | 63 | 1008.8 |
| 20260506160209 | 21 | 164 | 6.4 | 9.7 | 0.00 | 0.00 | 0.00 | 63 | 1008.5 |
| 20260506155707 | 21 | 183 | 8.0 | 12.9 | 0.00 | 0.00 | 0.00 | 62 | 1008.7 |
| 20260506155204 | 21 | 166 | 4.8 | 9.7 | 0.00 | 0.00 | 0.00 | 62 | 1008.6 |
| 20260506153312 | 21 | 140 | 22.5 | 25.7 | 0.00 | 0.00 | 0.00 | 63 | 1008.6 |
| 20260506152808 | 21 | 205 | 14.5 | 22.5 | 0.00 | 0.00 | 0.00 | 63 | 1008.3 |
| 20260506152306 | 21 | 306 | 8.0 | 11.3 | 0.00 | 0.00 | 0.00 | 63 | 1008.6 |
| 20260506151805 | 21 | 130 | 12.9 | 16.1 | 0.00 | 0.00 | 0.00 | 63 | 1008.5 |
| 20260506151301 | 21 | 183 | 14.5 | 17.7 | 0.00 | 0.00 | 0.00 | 63 | 1008.8 |
| 20260506150757 | 20 | 138 | 8.0 | 14.5 | 0.00 | 0.00 | 0.00 | 66 | 1008.8 |
| 20260506150303 | 20 | 306 | 0.0 | 0.0 | 0.00 | 0.00 | 0.00 | 69 | 1008.9 |
| 20260506145752 | 19 | 304 | 4.8 | 4.8 | 0.00 | 0.00 | 0.00 | 69 | 1008.8 |
| 20260506145248 | 20 | 89 | 4.8 | 4.8 | 0.00 | 0.00 | 0.00 | 68 | 1008.8 |
| 20260506144746 | 20 | 55 | 4.8 | 4.8 | 0.00 | 0.00 | 0.00 | 69 | 1008.9 |
| 20260506144242 | 20 | 297 | 3.2 | 3.2 | 0.00 | 0.00 | 0.00 | 67 | 1009.1 |
| 20260506143740 | 21 | 280 | 0.0 | 0.0 | 0.00 | 0.00 | 0.00 | 66 | 1008.8 |
| 20260506143237 | 20 | 174 | 3.2 | 4.8 | 0.00 | 0.00 | 0.00 | 68 | 1008.7 |
| 20260506142736 | 20 | 136 | 6.4 | 6.4 | 0.00 | 0.00 | 0.00 | 69 | 1008.9 |
| 20260506142233 | 20 | 227 | 6.4 | 6.4 | 0.00 | 0.00 | 0.00 | 69 | 1008.7 |
| 20260506141731 | 20 | 216 | 4.8 | 6.4 | 0.00 | 0.00 | 0.00 | 69 | 1008.5 |
| 20260506141229 | 20 | 150 | 8.0 | 11.3 | 0.00 | 0.00 | 0.00 | 69 | 1008.7 |
| 20260506140727 | 20 | 169 | 8.0 | 17.7 | 0.00 | 0.00 | 0.00 | 69 | 1008.7 |
| 20260506140223 | 20 | 126 | 11.3 | 16.1 | 0.00 | 0.00 | 0.00 | 69 | 1008.8 |
| 20260506135720 | 20 | 143 | 3.2 | 9.7 | 0.00 | 0.00 | 0.00 | 69 | 1009.0 |
| 20260506135216 | 20 | 65 | 3.2 | 6.4 | 0.00 | 0.00 | 0.00 | 69 | 1009.1 |
| 20260506134713 | 20 | 204 | 3.2 | 3.2 | 0.00 | 0.00 | 0.00 | 70 | 1008.9 |
| 20260506134209 | 20 | 175 | 9.7 | 12.9 | 0.00 | 0.00 | 0.00 | 70 | 1008.9 |
| 20260506133707 | 20 | 190 | 9.7 | 11.3 | 0.00 | 0.00 | 0.00 | 70 | 1008.9 |
| 20260506133203 | 20 | 278 | 4.8 | 11.3 | 0.00 | 0.00 | 0.00 | 70 | 1009.2 |
| 20260506132701 | 19 | 189 | 12.9 | 17.7 | 0.00 | 0.00 | 0.00 | 72 | 1009.1 |
| 20260506132157 | 19 | 170 | 6.4 | 9.7 | 0.00 | 0.00 | 0.00 | 72 | 1009.4 |
| 20260506131655 | 19 | 169 | 8.0 | 11.3 | 0.00 | 0.00 | 0.00 | 72 | 1008.9 |
| 20260506131151 | 19 | 121 | 16.1 | 17.7 | 0.00 | 0.00 | 0.00 | 72 | 1009.1 |
| 20260506130648 | 19 | 338 | 3.2 | 3.2 | 0.00 | 0.00 | 0.00 | 71 | 1009.2 |
| 20260506130145 | 19 | 249 | 4.8 | 9.7 | 0.00 | 0.00 | 0.00 | 72 | 1008.9 |
| 20260506125644 | 19 | 150 | 4.8 | 4.8 | 0.00 | 0.00 | 0.00 | 72 | 1008.9 |
| 20260506125141 | 19 | 128 | 9.7 | 11.3 | 0.00 | 0.00 | 0.00 | 72 | 1008.9 |
| 20260506124639 | 18 | 223 | 6.4 | 11.3 | 0.00 | 0.00 | 0.00 | 73 | 1008.8 |
| 20260506124136 | 18 | 133 | 3.2 | 4.8 | 0.00 | 0.00 | 0.00 | 74 | 1009.2 |
| 20260506123634 | 18 | 308 | 3.2 | 4.8 | 0.00 | 0.00 | 0.00 | 74 | 1009.1 |
| 20260506123132 | 18 | 79 | 6.4 | 12.9 | 0.00 | 0.00 | 0.00 | 75 | 1009.1 |
| 20260506122629 | 18 | 281 | 1.6 | 3.2 | 0.00 | 0.00 | 0.00 | 75 | 1009.1 |
| 20260506122126 | 18 | 163 | 9.7 | 12.9 | 0.00 | 0.00 | 0.00 | 75 | 1009.1 |
| 20260506121624 | 18 | 304 | 4.8 | 6.4 | 0.00 | 0.00 | 0.00 | 74 | 1009.3 |
| 20260506121120 | 18 | 229 | 6.4 | 11.3 | 0.00 | 0.00 | 0.00 | 74 | 1009.4 |
| 20260506120618 | 18 | 139 | 8.0 | 9.7 | 0.00 | 0.00 | 0.00 | 74 | 1009.6 |
| 20260506120115 | 18 | 204 | 9.7 | 11.3 | 0.00 | 0.00 | 0.00 | 75 | 1009.4 |
| 20260506115614 | 18 | 174 | 6.4 | 11.3 | 0.00 | 0.00 | 0.00 | 74 | 1009.4 |
| 20260506115112 | 18 | 127 | 4.8 | 12.9 | 0.00 | 0.00 | 0.00 | 75 | 1009.4 |
| 20260506114608 | 18 | 173 | 8.0 | 11.3 | 0.00 | 0.00 | 0.00 | 76 | 1009.3 |
| 20260506114107 | 18 | 173 | 6.4 | 6.4 | 0.00 | 0.00 | 0.00 | 76 | 1009.6 |
| 20260506113604 | 17 | 283 | 6.4 | 9.7 | 0.00 | 0.00 | 0.00 | 77 | 1009.5 |
| 20260506113101 | 17 | 139 | 8.0 | 9.7 | 0.00 | 0.00 | 0.00 | 78 | 1009.3 |
| 20260506112557 | 17 | 205 | 6.4 | 11.3 | 0.00 | 0.00 | 0.00 | 78 | 1009.5 |
| 20260506112055 | 17 | 280 | 6.4 | 11.3 | 0.00 | 0.00 | 0.00 | 78 | 1009.5 |
| 20260506111553 | 17 | 152 | 16.1 | 27.4 | 0.00 | 0.00 | 0.00 | 79 | 1009.1 |
| 20260506111050 | 17 | 27 | 6.4 | 14.5 | 0.00 | 0.00 | 0.00 | 78 | 1009.1 |
| 20260506110548 | 17 | 251 | 11.3 | 14.5 | 0.00 | 0.00 | 0.00 | 80 | 1009.0 |
| 20260506110045 | 17 | 23 | 6.4 | 11.3 | 0.00 | 0.00 | 0.00 | 81 | 1009.2 |
| 20260506105541 | 16 | 344 | 6.4 | 11.3 | 0.00 | 0.00 | 0.00 | 81 | 1009.1 |
| 20260506105038 | 16 | 110 | 8.0 | 14.5 | 0.00 | 0.00 | 0.00 | 81 | 1009.1 |
| 20260506104536 | 17 | 218 | 4.8 | 9.7 | 0.00 | 0.00 | 0.00 | 81 | 1009.2 |
| 20260506104034 | 17 | 357 | 6.4 | 11.3 | 0.00 | 0.00 | 0.00 | 81 | 1009.1 |
| 20260506103531 | 16 | 261 | 4.8 | 9.7 | 0.00 | 0.00 | 0.00 | 81 | 1009.2 |
| 20260506103027 | 16 | 148 | 9.7 | 12.9 | 0.00 | 0.00 | 0.00 | 82 | 1009.0 |
| 20260506102526 | 16 | 300 | 3.2 | 4.8 | 0.00 | 0.00 | 0.00 | 82 | 1009.1 |
| 20260506102023 | 16 | 147 | 3.2 | 6.4 | 0.00 | 0.00 | 0.00 | 82 | 1009.1 |
| 20260506101519 | 16 | 163 | 9.7 | 12.9 | 0.00 | 0.00 | 0.00 | 82 | 1009.0 |
| 20260506101016 | 16 | 212 | 1.6 | 3.2 | 0.00 | 0.00 | 0.00 | 82 | 1008.8 |
| 20260506100515 | 16 | 278 | 3.2 | 3.2 | 0.00 | 0.00 | 0.00 | 82 | 1008.9 |
| 20260506100013 | 16 | 148 | 9.7 | 11.3 | 0.00 | 0.00 | 0.00 | 82 | 1009.0 |
| 20260506095511 | 16 | 149 | 8.0 | 11.3 | 0.00 | 0.00 | 0.00 | 82 | 1008.9 |
| 20260506095007 | 16 | 302 | 4.8 | 6.4 | 0.00 | 0.00 | 0.00 | 82 | 1009.0 |
| 20260506094505 | 16 | 178 | 9.7 | 12.9 | 0.00 | 0.00 | 0.00 | 82 | 1009.1 |
| 20260506094003 | 16 | 108 | 14.5 | 22.5 | 0.00 | 0.00 | 0.00 | 82 | 1009.1 |
| 20260506093501 | 16 | 209 | 3.2 | 4.8 | 0.00 | 0.00 | 0.00 | 82 | 1008.9 |
| 20260506092958 | 16 | 156 | 9.7 | 12.9 | 0.00 | 0.00 | 0.00 | 82 | 1009.1 |
| 20260506092456 | 16 | 163 | 3.2 | 4.8 | 0.00 | 0.00 | 0.00 | 82 | 1009.0 |
| 20260506091952 | 16 | 176 | 11.3 | 14.5 | 0.00 | 0.00 | 0.00 | 82 | 1008.9 |
| 20260506091450 | 16 | 329 | 12.9 | 20.9 | 0.00 | 0.00 | 0.00 | 82 | 1008.8 |
| 20260506090947 | 16 | 133 | 4.8 | 6.4 | 0.00 | 0.00 | 0.00 | 82 | 1009.1 |
| 20260506090445 | 16 | 112 | 4.8 | 4.8 | 0.00 | 0.00 | 0.00 | 82 | 1009.2 |
| 20260506085941 | 16 | 141 | 9.7 | 16.1 | 0.00 | 0.00 | 0.00 | 82 | 1009.2 |
| 20260506085438 | 16 | 279 | 8.0 | 12.9 | 0.00 | 0.00 | 0.00 | 82 | 1009.1 |
| 20260506084934 | 16 | 284 | 1.6 | 3.2 | 0.00 | 0.00 | 0.00 | 82 | 1009.3 |
| 20260506084432 | 16 | 125 | 6.4 | 9.7 | 0.00 | 0.00 | 0.00 | 82 | 1009.4 |
| 20260506083927 | 16 | 300 | 3.2 | 3.2 | 0.00 | 0.00 | 0.00 | 82 | 1009.2 |
| 20260506083425 | 16 | 339 | 4.8 | 9.7 | 0.00 | 0.00 | 0.00 | 82 | 1009.3 |
| 20260506082922 | 16 | 178 | 3.2 | 3.2 | 0.00 | 0.00 | 0.00 | 82 | 1009.4 |
| 20260506082419 | 16 | 308 | 0.0 | 0.0 | 0.00 | 0.00 | 0.00 | 82 | 1009.2 |
| 20260506081915 | 17 | 292 | 1.6 | 3.2 | 0.00 | 0.00 | 0.00 | 81 | 1009.4 |
| 20260506081414 | 17 | 304 | 0.0 | 0.0 | 0.00 | 0.00 | 0.00 | 81 | 1009.4 |
| 20260506080910 | 17 | 180 | 4.8 | 6.4 | 0.00 | 0.00 | 0.00 | 81 | 1009.1 |
| 20260506080407 | 17 | 296 | 1.6 | 1.6 | 0.00 | 0.00 | 0.00 | 81 | 1009.1 |
| 20260506073351 | 17 | 110 | 8.0 | 9.7 | 0.00 | 0.00 | 0.00 | 80 | 1009.5 |
| 20260506072847 | 17 | 2 | 3.2 | 4.8 | 0.00 | 0.00 | 0.00 | 80 | 1009.3 |
| 20260506072345 | 17 | 291 | 1.6 | 1.6 | 0.00 | 0.00 | 0.00 | 79 | 1009.3 |
| 20260506071843 | 17 | 256 | 6.4 | 6.4 | 0.00 | 0.00 | 0.00 | 79 | 1009.6 |
| 20260506071341 | 17 | 187 | 8.0 | 12.9 | 0.00 | 0.00 | 0.00 | 79 | 1009.5 |
| 20260506070837 | 17 | 170 | 6.4 | 14.5 | 0.00 | 0.00 | 0.00 | 78 | 1009.5 |
| 20260506070335 | 17 | 305 | 3.2 | 4.8 | 0.00 | 0.00 | 0.00 | 78 | 1009.4 |
| 20260506062312 | 16 | 70 | 3.2 | 6.4 | 0.00 | 0.00 | 0.00 | 78 | 1009.6 |
| 20260506061808 | 16 | 346 | 1.6 | 3.2 | 0.00 | 0.00 | 0.00 | 78 | 1009.5 |
| 20260506061304 | 16 | 348 | 0.0 | 0.0 | 0.00 | 0.00 | 0.00 | 77 | 1009.5 |
| 20260506060803 | 16 | 308 | 0.0 | 1.6 | 0.00 | 0.00 | 0.00 | 77 | 1009.5 |
| 20260506060301 | 16 | 356 | 3.2 | 4.8 | 0.00 | 0.00 | 0.00 | 77 | 1009.7 |
| 20260506051232 | 18 | 333 | 4.8 | 11.3 | 0.00 | 0.00 | 0.00 | 72 | 1009.9 |
| 20260506050730 | 18 | 346 | 6.4 | 11.3 | 0.00 | 0.00 | 0.00 | 72 | 1010.1 |
| 20260506050227 | 18 | 311 | 1.6 | 1.6 | 0.00 | 0.00 | 0.00 | 72 | 1010.1 |
| 20260506044718 | 18 | 296 | 1.6 | 1.6 | 0.00 | 0.00 | 0.00 | 71 | 1009.8 |
| 20260506044215 | 18 | 262 | 4.8 | 6.4 | 0.00 | 0.00 | 0.00 | 71 | 1009.9 |
| 20260506043712 | 18 | 29 | 1.6 | 1.6 | 0.00 | 0.00 | 0.00 | 71 | 1010.0 |
| 20260506043210 | 18 | 301 | 1.6 | 1.6 | 0.00 | 0.00 | 0.00 | 70 | 1010.0 |
| 20260506042709 | 18 | 243 | 6.4 | 9.7 | 0.00 | 0.00 | 0.00 | 70 | 1010.0 |
| 20260506042206 | 18 | 194 | 9.7 | 14.5 | 0.00 | 0.00 | 0.00 | 69 | 1010.0 |
| 20260506041705 | 19 | 71 | 6.4 | 12.9 | 0.00 | 0.00 | 0.00 | 69 | 1010.1 |
| 20260506041201 | 19 | 234 | 9.7 | 12.9 | 0.00 | 0.00 | 0.00 | 68 | 1009.9 |
| 20260506040659 | 19 | 155 | 4.8 | 9.7 | 0.00 | 0.00 | 0.00 | 67 | 1009.9 |
| 20260506040155 | 19 | 175 | 20.9 | 25.7 | 0.00 | 0.00 | 0.00 | 67 | 1010.1 |
| 20260506035652 | 19 | 162 | 12.9 | 20.9 | 0.00 | 0.00 | 0.00 | 67 | 1010.0 |
| 20260506035149 | 19 | 55 | 9.7 | 14.5 | 0.00 | 0.00 | 0.00 | 67 | 1009.9 |
| 20260506034646 | 20 | 226 | 4.8 | 9.7 | 0.00 | 0.00 | 0.00 | 66 | 1010.3 |
| 20260506034143 | 20 | 304 | 4.8 | 6.4 | 0.00 | 0.00 | 0.00 | 66 | 1010.0 |
| 20260506033640 | 20 | 84 | 4.8 | 14.5 | 0.00 | 0.00 | 0.00 | 66 | 1009.9 |
| 20260506033137 | 20 | 199 | 9.7 | 14.5 | 0.00 | 0.00 | 0.00 | 65 | 1009.9 |
| 20260506032634 | 20 | 181 | 4.8 | 11.3 | 0.00 | 0.00 | 0.00 | 65 | 1009.8 |
| 20260506032131 | 20 | 300 | 6.4 | 9.7 | 0.00 | 0.00 | 0.00 | 64 | 1009.6 |
| 20260506031628 | 20 | 152 | 12.9 | 17.7 | 0.00 | 0.00 | 0.00 | 64 | 1009.7 |
| 20260506031125 | 20 | 122 | 17.7 | 20.9 | 0.00 | 0.00 | 0.00 | 64 | 1009.7 |
| 20260506030624 | 20 | 143 | 11.3 | 17.7 | 0.00 | 0.00 | 0.00 | 65 | 1009.8 |
| 20260506030121 | 20 | 126 | 4.8 | 6.4 | 0.00 | 0.00 | 0.00 | 65 | 1009.6 |
| 20260506025617 | 19 | 166 | 11.3 | 16.1 | 0.00 | 0.00 | 0.00 | 64 | 1009.7 |
| 20260506025113 | 19 | 157 | 9.7 | 16.1 | 0.00 | 0.00 | 0.00 | 65 | 1009.8 |
| 20260506024611 | 19 | 79 | 9.7 | 22.5 | 0.00 | 0.00 | 0.00 | 65 | 1009.8 |
| 20260506024107 | 19 | 121 | 11.3 | 17.7 | 0.00 | 0.00 | 0.00 | 65 | 1009.7 |
| 20260506023603 | 19 | 87 | 9.7 | 12.9 | 0.00 | 0.00 | 0.00 | 65 | 1009.8 |
| 20260506023101 | 19 | 260 | 8.0 | 11.3 | 0.00 | 0.00 | 0.00 | 64 | 1009.9 |
| 20260506022558 | 19 | 252 | 4.8 | 6.4 | 0.00 | 0.00 | 0.00 | 65 | 1009.9 |
| 20260506022056 | 19 | 175 | 4.8 | 9.7 | 0.00 | 0.00 | 0.00 | 65 | 1009.8 |
| 20260506021553 | 19 | 164 | 6.4 | 6.4 | 0.00 | 0.00 | 0.00 | 64 | 1009.9 |
| 20260506021050 | 19 | 21 | 3.2 | 4.8 | 0.00 | 0.00 | 0.00 | 65 | 1009.8 |
| 20260506020547 | 19 | 10 | 9.7 | 14.5 | 0.00 | 0.00 | 0.00 | 65 | 1009.7 |
| 20260506020044 | 19 | 291 | 11.3 | 17.7 | 0.00 | 0.00 | 0.00 | 64 | 1009.7 |
| 20260506015542 | 20 | 288 | 6.4 | 9.7 | 0.00 | 0.00 | 0.00 | 64 | 1009.8 |
| 20260506015039 | 20 | 249 | 9.7 | 12.9 | 0.00 | 0.00 | 0.00 | 63 | 1009.8 |
| 20260506014536 | 20 | 158 | 4.8 | 9.7 | 0.00 | 0.00 | 0.00 | 63 | 1009.7 |
| 20260506014032 | 20 | 165 | 9.7 | 14.5 | 0.00 | 0.00 | 0.00 | 63 | 1010.0 |
| 20260506013531 | 20 | 282 | 6.4 | 12.9 | 0.00 | 0.00 | 0.00 | 63 | 1009.6 |
| 20260506013027 | 20 | 204 | 9.7 | 16.1 | 0.00 | 0.00 | 0.00 | 62 | 1009.9 |
| 20260506012523 | 19 | 150 | 11.3 | 16.1 | 0.00 | 0.00 | 0.00 | 63 | 1009.4 |
| 20260506012020 | 19 | 344 | 1.6 | 1.6 | 0.00 | 0.00 | 0.00 | 64 | 1009.7 |
| 20260506011517 | 18 | 69 | 6.4 | 9.7 | 0.00 | 0.00 | 0.00 | 64 | 1009.7 |
| 20260506011013 | 18 | 303 | 0.0 | 0.0 | 0.00 | 0.00 | 0.00 | 65 | 1009.5 |
| 20260506010508 | 18 | 349 | 1.6 | 3.2 | 0.00 | 0.00 | 0.00 | 65 | 1009.4 |
| 20260506010003 | 18 | 40 | 3.2 | 11.3 | 0.00 | 0.00 | 0.00 | 65 | 1009.2 |
| 20260506005501 | 18 | 13 | 6.4 | 6.4 | 0.00 | 0.00 | 0.00 | 64 | 1009.3 |
| 20260506004956 | 18 | 280 | 4.8 | 4.8 | 0.00 | 0.00 | 0.00 | 64 | 1009.1 |
| 20260506004454 | 19 | 63 | 6.4 | 11.3 | 0.00 | 0.00 | 0.00 | 63 | 1009.2 |
| 20260506003950 | 19 | 84 | 3.2 | 6.4 | 0.00 | 0.00 | 0.00 | 63 | 1009.1 |
| 20260506003446 | 19 | 308 | 0.0 | 0.0 | 0.00 | 0.00 | 0.00 | 63 | 1009.0 |
| 20260506002943 | 19 | 316 | 1.6 | 4.8 | 0.00 | 0.00 | 0.00 | 64 | 1009.0 |
| 20260506002439 | 19 | 58 | 4.8 | 9.7 | 0.00 | 0.00 | 0.00 | 63 | 1009.0 |
| 20260506001934 | 19 | 301 | 1.6 | 1.6 | 0.00 | 0.00 | 0.00 | 64 | 1008.8 |
| 20260506001432 | 19 | 305 | 0.0 | 1.6 | 0.00 | 0.00 | 0.00 | 63 | 1008.8 |
| 20260506000929 | 19 | 6 | 6.4 | 9.7 | 0.00 | 0.00 | 0.00 | 63 | 1008.8 |
| 20260506000427 | 20 | 80 | 4.8 | 6.4 | 0.00 | 0.00 | 0.00 | 63 | 1008.8 |
| 20260505235923 | 20 | 61 | 4.8 | 6.4 | 0.00 | 0.00 | 0.00 | 63 | 1008.8 |
| 20260505235421 | 20 | 36 | 3.2 | 3.2 | 0.00 | 0.00 | 0.00 | 61 | 1008.7 |
| 20260505234918 | 20 | 312 | 3.2 | 3.2 | 0.00 | 0.00 | 0.00 | 59 | 1008.7 |
| 20260505234415 | 21 | 53 | 3.2 | 6.4 | 0.00 | 0.00 | 0.00 | 59 | 1008.4 |
| 20260505233912 | 21 | 301 | 6.4 | 9.7 | 0.00 | 0.00 | 0.00 | 59 | 1008.3 |
| 20260505233410 | 20 | 332 | 3.2 | 6.4 | 0.00 | 0.00 | 0.00 | 60 | 1008.3 |
| 20260505232907 | 20 | 356 | 3.2 | 3.2 | 0.00 | 0.00 | 0.00 | 61 | 1008.0 |
| 20260505232405 | 20 | 17 | 6.4 | 6.4 | 0.00 | 0.00 | 0.00 | 61 | 1008.1 |
| 20260505231901 | 20 | 37 | 4.8 | 6.4 | 0.00 | 0.00 | 0.00 | 60 | 1007.9 |
| 20260505231359 | 20 | 68 | 3.2 | 4.8 | 0.00 | 0.00 | 0.00 | 61 | 1008.0 |
| 20260505230857 | 20 | 123 | 6.4 | 6.4 | 0.00 | 0.00 | 0.00 | 61 | 1007.9 |
| 20260505230354 | 20 | 42 | 6.4 | 11.3 | 0.00 | 0.00 | 0.00 | 62 | 1007.8 |
| 20260505225851 | 20 | 32 | 9.7 | 11.3 | 0.00 | 0.00 | 0.00 | 62 | 1008.0 |
| 20260505225348 | 20 | 11 | 8.0 | 9.7 | 0.00 | 0.00 | 0.00 | 61 | 1007.9 |
| 20260505224843 | 21 | 300 | 6.4 | 9.7 | 0.00 | 0.00 | 0.00 | 60 | 1007.8 |
| 20260505224341 | 21 | 43 | 4.8 | 6.4 | 0.00 | 0.00 | 0.00 | 59 | 1007.7 |
| 20260505223838 | 21 | 355 | 9.7 | 11.3 | 0.00 | 0.00 | 0.00 | 58 | 1007.7 |
| 20260505223335 | 22 | 24 | 14.5 | 17.7 | 0.00 | 0.00 | 0.00 | 57 | 1007.6 |
| 20260505222830 | 22 | 95 | 9.7 | 16.1 | 0.00 | 0.00 | 0.00 | 55 | 1007.6 |
| 20260505222327 | 22 | 286 | 6.4 | 11.3 | 0.00 | 0.00 | 0.00 | 52 | 1007.5 |
| 20260505221824 | 24 | 5 | 4.8 | 6.4 | 0.00 | 0.00 | 0.00 | 51 | 1007.4 |
| 20260505221321 | 25 | 22 | 3.2 | 4.8 | 0.00 | 0.00 | 0.00 | 45 | 1007.4 |
| 20260505220818 | 25 | 262 | 6.4 | 9.7 | 0.00 | 0.00 | 0.00 | 44 | 1007.3 |
| 20260505220315 | 25 | 47 | 8.0 | 11.3 | 0.00 | 0.00 | 0.00 | 47 | 1007.2 |
| 20260505215813 | 25 | 125 | 3.2 | 6.4 | 0.00 | 0.00 | 0.00 | 43 | 1007.2 |
| 20260505215310 | 25 | 121 | 8.0 | 12.9 | 0.00 | 0.00 | 0.00 | 44 | 1007.3 |
| 20260505214808 | 25 | 286 | 1.6 | 1.6 | 0.00 | 0.00 | 0.00 | 47 | 1007.2 |
| 20260505214306 | 26 | 330 | 4.8 | 9.7 | 0.00 | 0.00 | 0.00 | 46 | 1007.4 |
| 20260505213802 | 26 | 307 | 3.2 | 3.2 | 0.00 | 0.00 | 0.00 | 41 | 1007.2 |
| 20260505213300 | 27 | 228 | 1.6 | 3.2 | 0.00 | 0.00 | 0.00 | 38 | 1007.0 |
| 20260505212755 | 28 | 278 | 6.4 | 11.3 | 0.00 | 0.00 | 0.00 | 34 | 1007.1 |
| 20260505212253 | 28 | 99 | 14.5 | 17.7 | 0.00 | 0.00 | 0.00 | 34 | 1007.2 |